• In Uzbekistan
  • List of Countries
  • For 7 days
  • Water Temperature
  • Satellite Maps
  • Weather Map
  • Weather Widgets
  • user-avatar
    Login

    Hourly Weather Eisenstadt

    Today, 17 October, Tuesday

    Time Temperature Precipitation Wind Pressure Humidity
    00:00 +13°C° 0 mm 1 mps 730 mmHg 79%
    01:00 +13°C° 0 mm 1 mps 730 mmHg 78%
    02:00 +13°C° 0 mm 1 mps 729 mmHg 79%
    03:00 +13°C° 0 mm 1 mps 729 mmHg 79%
    04:00 +13°C° 0 mm 1 mps 729 mmHg 79%
    05:00 +13°C° 0 mm 1 mps 729 mmHg 79%
    06:00 +12°C° 0 mm 0 mps 729 mmHg 79%
    07:00 +11°C° 0 mm 0 mps 729 mmHg 79%
    08:00 +15°C° 0 mm 1 mps 729 mmHg 71%
    09:00 +18°C° 0 mm 1 mps 729 mmHg 64%
    10:00 +20°C° 0 mm 1 mps 729 mmHg 56%
    11:00 +21°C° 0 mm 1 mps 729 mmHg 53%
    12:00 +21°C° 0 mm 2 mps 729 mmHg 50%
    13:00 +23°C° 0 mm 2 mps 729 mmHg 46%
    14:00 +23°C° 0 mm 2 mps 728 mmHg 51%
    15:00 +21°C° 0 mm 2 mps 728 mmHg 55%
    16:00 +20°C° 0 mm 2 mps 727 mmHg 59%
    17:00 +18°C° 0 mm 2 mps 727 mmHg 64%
    18:00 +17°C° 0 mm 2 mps 727 mmHg 70%
    19:00 +15°C° 0 mm 2 mps 727 mmHg 75%
    20:00 +15°C° 0 mm 2 mps 726 mmHg 77%
    21:00 +14°C° 0 mm 2 mps 726 mmHg 78%
    22:00 +14°C° 0 mm 2 mps 726 mmHg 80%
    23:00 +13°C° 0 mm 2 mps 726 mmHg 81%

    Tomorrow, 18 October, Wednesday

    Time Temperature Precipitation Wind Pressure Humidity
    00:00 +13°C° 0 mm 2 mps 725 mmHg 82%
    01:00 +13°C° 0 mm 2 mps 725 mmHg 83%
    02:00 +12°C° 0 mm 2 mps 725 mmHg 84%
    03:00 +12°C° 0 mm 2 mps 724 mmHg 85%
    04:00 +12°C° 0 mm 2 mps 724 mmHg 86%
    05:00 +12°C° 0 mm 2 mps 724 mmHg 86%
    06:00 +12°C° 0 mm 2 mps 724 mmHg 86%
    07:00 +12°C° 0 mm 1 mps 724 mmHg 86%
    08:00 +14°C° 0 mm 2 mps 724 mmHg 78%
    09:00 +16°C° 0 mm 2 mps 724 mmHg 70%
    10:00 +18°C° 0 mm 2 mps 724 mmHg 62%
    11:00 +19°C° 0 mm 2 mps 724 mmHg 57%
    12:00 +20°C° 0 mm 2 mps 723 mmHg 52%
    13:00 +21°C° 0 mm 2 mps 723 mmHg 47%
    14:00 +20°C° 0 mm 2 mps 723 mmHg 50%
    15:00 +20°C° 0 mm 2 mps 722 mmHg 53%
    16:00 +19°C° 0 mm 2 mps 722 mmHg 56%
    17:00 +17°C° 0 mm 2 mps 722 mmHg 60%
    18:00 +16°C° 0 mm 1 mps 722 mmHg 65%
    19:00 +14°C° 0 mm 1 mps 722 mmHg 70%
    20:00 +14°C° 0 mm 1 mps 722 mmHg 71%
    21:00 +13°C° 0 mm 1 mps 722 mmHg 73%
    22:00 +13°C° 0 mm 1 mps 722 mmHg 75%
    23:00 +13°C° 0 mm 1 mps 722 mmHg 76%

    Day after tomorrow, 19 October, Thursday

    Time Temperature Precipitation Wind Pressure Humidity
    00:00 +12°C° 0 mm 1 mps 722 mmHg 77%
    01:00 +12°C° 0 mm 1 mps 722 mmHg 78%
    02:00 +12°C° 0 mm 1 mps 722 mmHg 79%
    03:00 +12°C° 0 mm 1 mps 722 mmHg 80%
    04:00 +11°C° 0 mm 1 mps 722 mmHg 81%
    05:00 +11°C° 0 mm 1 mps 722 mmHg 82%
    06:00 +11°C° 0 mm 1 mps 722 mmHg 82%
    07:00 +11°C° 0 mm 1 mps 722 mmHg 82%
    08:00 +13°C° 0 mm 1 mps 722 mmHg 75%
    09:00 +15°C° 0 mm 0 mps 722 mmHg 67%
    10:00 +17°C° 0 mm 0 mps 723 mmHg 59%
    11:00 +20°C° 0 mm 1 mps 722 mmHg 56%
    12:00 +21°C° 0 mm 1 mps 722 mmHg 53%
    13:00 +21°C° 0 mm 1 mps 722 mmHg 50%
    14:00 +21°C° 0 mm 1 mps 722 mmHg 53%
    15:00 +20°C° 0 mm 1 mps 722 mmHg 57%
    16:00 +20°C° 0 mm 1 mps 722 mmHg 60%
    17:00 +18°C° 0 mm 1 mps 722 mmHg 65%
    18:00 +15°C° 0 mm 1 mps 722 mmHg 70%
    19:00 +14°C° 0 mm 1 mps 722 mmHg 75%
    20:00 +13°C° 0 mm 1 mps 722 mmHg 76%
    21:00 +13°C° 0 mm 1 mps 722 mmHg 77%
    22:00 +13°C° 0 mm 1 mps 723 mmHg 78%
    23:00 +12°C° 0 mm 1 mps 723 mmHg 78%

    20 October, Friday

    Time Temperature Precipitation Wind Pressure Humidity
    00:00 +12°C° 0 mm 1 mps 723 mmHg 79%
    01:00 +12°C° 0 mm 1 mps 723 mmHg 79%
    02:00 +11°C° 0 mm 1 mps 722 mmHg 80%
    03:00 +11°C° 0 mm 1 mps 722 mmHg 81%
    04:00 +10°C° 0 mm 0 mps 722 mmHg 81%
    05:00 +10°C° 0 mm 0 mps 722 mmHg 81%
    06:00 +10°C° 0 mm 0 mps 722 mmHg 81%
    07:00 +9°C° 0 mm 0 mps 723 mmHg 81%
    08:00 +13°C° 0 mm 1 mps 723 mmHg 73%
    09:00 +15°C° 0 mm 1 mps 723 mmHg 65%
    10:00 +18°C° 0 mm 1 mps 724 mmHg 57%
    11:00 +19°C° 0 mm 1 mps 723 mmHg 54%
    12:00 +20°C° 0 mm 1 mps 723 mmHg 51%
    13:00 +21°C° 0 mm 1 mps 723 mmHg 48%
    14:00 +20°C° 0 mm 1 mps 723 mmHg 52%
    15:00 +20°C° 0 mm 1 mps 723 mmHg 56%
    16:00 +19°C° 0 mm 1 mps 723 mmHg 59%
    17:00 +16°C° 0 mm 1 mps 723 mmHg 64%
    18:00 +15°C° 0 mm 1 mps 723 mmHg 69%
    19:00 +13°C° 0 mm 1 mps 724 mmHg 73%
    20:00 +13°C° 0 mm 1 mps 724 mmHg 74%
    21:00 +13°C° 0 mm 1 mps 724 mmHg 75%
    22:00 +12°C° 0 mm 1 mps 724 mmHg 76%
    23:00 +12°C° 0 mm 1 mps 724 mmHg 75%

    21 October, Saturday

    Time Temperature Precipitation Wind Pressure Humidity
    00:00 +12°C° 0 mm 1 mps 724 mmHg 75%
    01:00 +12°C° 0 mm 1 mps 724 mmHg 74%
    02:00 +12°C° 0 mm 1 mps 724 mmHg 73%
    03:00 +12°C° 0 mm 1 mps 724 mmHg 72%
    04:00 +12°C° 0 mm 1 mps 724 mmHg 71%
    05:00 +12°C° 0 mm 1 mps 724 mmHg 71%
    06:00 +12°C° 0 mm 1 mps 724 mmHg 70%
    07:00 +12°C° 0 mm 1 mps 724 mmHg 69%
    08:00 +14°C° 0 mm 1 mps 724 mmHg 63%
    09:00 +16°C° 0 mm 1 mps 725 mmHg 56%
    10:00 +20°C° 0 mm 1 mps 725 mmHg 49%
    11:00 +20°C° 0 mm 2 mps 725 mmHg 47%
    12:00 +21°C° 0 mm 2 mps 724 mmHg 44%
    13:00 +23°C° 0 mm 2 mps 724 mmHg 42%
    14:00 +21°C° 0 mm 2 mps 723 mmHg 47%
    15:00 +20°C° 0 mm 2 mps 723 mmHg 52%
    16:00 +19°C° 0 mm 2 mps 723 mmHg 56%
    17:00 +18°C° 0 mm 2 mps 723 mmHg 62%
    18:00 +16°C° 0 mm 2 mps 723 mmHg 68%
    19:00 +14°C° 0 mm 2 mps 722 mmHg 74%
    20:00 +14°C° 0 mm 2 mps 722 mmHg 76%
    21:00 +13°C° 0 mm 2 mps 722 mmHg 77%
    22:00 +13°C° 0 mm 2 mps 722 mmHg 79%
    23:00 +13°C° 0 mm 1 mps 722 mmHg 79%

    22 October, Sunday

    Time Temperature Precipitation Wind Pressure Humidity
    00:00 +12°C° 0 mm 1 mps 722 mmHg 80%
    01:00 +12°C° 0 mm 1 mps 721 mmHg 80%
    02:00 +12°C° 0 mm 1 mps 721 mmHg 81%
    03:00 +11°C° 0 mm 1 mps 721 mmHg 81%
    04:00 +11°C° 0 mm 1 mps 720 mmHg 82%
    05:00 +11°C° 0 mm 1 mps 720 mmHg 82%
    06:00 +11°C° 0 mm 1 mps 720 mmHg 82%
    07:00 +11°C° 0 mm 1 mps 720 mmHg 82%
    08:00 +13°C° 0 mm 1 mps 720 mmHg 75%
    09:00 +15°C° 0 mm 1 mps 720 mmHg 69%
    10:00 +16°C° 0 mm 1 mps 720 mmHg 62%
    11:00 +16°C° 0.1 mm 2 mps 720 mmHg 63%
    12:00 +16°C° 0.1 mm 3 mps 720 mmHg 64%
    13:00 +16°C° 0.1 mm 3 mps 720 mmHg 65%
    14:00 +14°C° 0.7 mm 4 mps 720 mmHg 69%
    15:00 +13°C° 0.7 mm 5 mps 720 mmHg 74%
    16:00 +10°C° 0.7 mm 5 mps 720 mmHg 79%
    17:00 +10°C° 1.8 mm 5 mps 720 mmHg 80%
    18:00 +9°C° 1.8 mm 5 mps 721 mmHg 81%
    19:00 +8°C° 1.8 mm 5 mps 722 mmHg 82%
    20:00 +8°C° 0.4 mm 5 mps 722 mmHg 82%
    21:00 +8°C° 0.4 mm 5 mps 722 mmHg 81%
    22:00 +8°C° 0.4 mm 4 mps 723 mmHg 80%
    23:00 +7°C° 0.1 mm 4 mps 723 mmHg 80%
    Show more